SCP
0 0 0 0 0 0 0 0 0 0 0 0 0 0 0 0 0 0 0 0 0 0 0 0 0 0 0 0 0 0 0 0 0 0 0 0 0 0 0 0 0 0 0 0 0 0 0 0 0 0 0 0 0 0
0 0 0 0 0 0 0 0 0 0 0 0 0 0 0 0 0 0 0 0 0 0 0 0 0 0 0 0 0 0 0 0 0 0 0 0 0 0 0 0 0 0 0 0 0 0 0 0 0 0 0 0 0 0
0 0 0 0 0 0 0 0 0 0 0 0 0 0 0 0 0 0 0 0 0 0 0 0 0 0 0 0 0 0 0 0 0 0 0 0 0 0 0 0 0 0 0 0 0 0 0 0 0 0 0 0 0 0
0 0 0 0 0 0 0 0 0 0 0 0 0 0 0 0 0 0 0 0 0 0 0 0 0 0 0 0 0 0 0 0 0 0 0 0 0 0 0 0 0 0 0 0 0 0 0 0 0 0 0 0 0 0
0 0 0 0 0 0 0 0 0 0 0 0 0 0 0 0 0 0 0 0 0 0 0 0 -0 0 0 0 0 0 0 0 0 0 0 0 0 0 0 0 0 0 0 0 0 0 0 0 0 0 0 0 0 0
0 0 0 0 0 0 0 0 0 0 0 0 0 0 0 0 0 0 0 0 0 0 0 0 0 0 0 0 0 0 0 0 0 0 0 0 0 0 0 0 0 0 0 0 0 0 0 0 0 0 0 0 0 0
0 0 0 0 0 0 0 0 0 0 0 0 0 0 0 0 0 0 0 0 0 0 0 0 0 0 0 0 0 0 0 0 0 0 0 0 0 0 0 0 0 0 0 0 0 0 0 0 0 0 0 0 0 0
0 0 0 0 0 0 0 0 0 0 0 0 0 0 0 0 0 0 0 0 0 0 0 0 0 0 0 0 0 0 0 0 0 0 0 0 0 0 0 0 0 0 0 0 0 0 0 0 0 0 0 0 0 0
0 0 0 0 0 0 0 0 0 0 0 0 0 0 0 0 0 0 0 0 0 0 0 0 0 0 0 0 0 0 0 0 0 0 0 0 0 0 0 0 0 0 0 0 0 0 0 0 0 0 0 0 0 0
0 0 0 0 0 0 0 0 0 0 0 0 0 0 0 0 0 0 0 0 0 0 0 0 0 0 0 0 0 0 0 0 0 0 0 0 0 0 0 0 0 0 0 0 0 0 0 0 0 0 0 0 0 0
0 0 0 0 0 0 0 0 0 0 0 0 0 0 0 0 0 0 0 0 0 0 0 0 0 0 0 0 0 0 0 0 0 0 0 0 0 0 0 0 0 0 0 0 0 0 0 0 0 0 0 0 0 0
0 0 0 0 0 0 0 0 0 0 0 0 0 0 0 0 0 0 0 0 0 0 0 0 0 0 0 0 0 0 0 0 0 0 0 0 0 0 0 0 0 0 0 0 0 0 0 0 0 0 0 0 0 0
0 0 0 0 0 0 0 0 0 0 0 0 0 0 0 0 0 0 0 0 0 0 0 0 0 0 0 0 0 0 0 0 0 0 0 0 0 0 0 0 0 0 0 0 0 0 0 0 0 0 0 0 0 0
0 0 0 0 0 0 0 0 0 0 0 0 0 0 0 0 0 0 0 0 0 0 0 0 0 0 0 0 0 0 0 0 0 0 0 0 0 0 0 0 0 0 0 0 0 0 0 0 0 0 0 0 0 0
0 0 0 0 0 0 0 0 0 0 0 0 0 0 0 0 0 0 0 0 0 0 0 0 0 0 0 0 0 0 0 0 0 0 0 0 0 0 0 0 0 0 0 0 0 0 0 0 0 0 0 0 0 0
0 0 0 0 0 0 0 0 0 0 0 0 0 0 0 0 0 0 0 0 0 0 0 0 0 0 0 0 0 0 0 0 0 0 0 0 0 0 0 0 0 0 0 0 0 0 0 0 0 0 0 0 0 0
0 0 0 0 0 -0 0 0 0 0 0 0 0 0 0 0 0 0 0 0 0 0 0 0 0 0 0 0 0 0 0 0 0 0 0 0 -0 -0 0 0 0 0 0 0 0 0 0 0 0 0 0 0 -0 -0
0 0 0 0 0 0 0 0 0 0 0 0 0 0 0 0 0 0 0 0 0 0 0 0 0 0 0 0 0 0 0 0 0 -0 -0 -0 -0 -0 0 0 0 0 0 0 0 0 0 0 0 0 0 0 0 0
0 0 0 0 0 0 0 0 0 0 0 0 0 0 0 0 -0 0 0 0 0 0 0 0 0 0 0 0 0 0 0 -0 -0 -0 -0 -0 -0 0 0 0 0 0 0 0 0 0 0 0 0 0 0 0 0 0
0 0 0 0 0 0 0 0 0 0 0 0 0 0 0 0 -0 -0 0 0 0 -0 -0 0 0 0 0 0 0 -0 -0 -0 -0 -0 -0 -0 -0 0 -0 -0 0 0 0 0 0 0 0 0 0 0 0 0 0 0
0 0 0 0 0 0 0 0 0 0 0 0 0 0 0 0 0 0 0 0 0 0 0 0 0 0 0 -0 -0 -0 -0 -0 -0 -0 0 0 0 0 -0 -0 0 0 0 0 0 0 0 0 0 0 0 0 0 0
0 0 0 0 0 0 0 0 0 0 0 0 0 0 0 0 0 0 0 0 0 0 0 0 0 0 -0 0 0 0 0 0 0 0 0 0 0 0 -0 -0 0 0 0 0 0 0 0 0 0 0 0 0 0 0
0 0 0 0 0 0 0 0 0 0 0 0 0 0 0 0 0 0 0 0 -0 -0 -0 -0 -0 0 0 0 0 0 0 0 0 0 0 0 0 0 -0 -0 -0 0 0 0 0 0 0 0 0 0 0 0 0 0
0 0 -0 0 0 0 0 0 -0 0 0 0 0 0 0 0 0 0 -0 0 0 0 -0 0 -0 0 0 0 0 0 0 -0 -0 -0 0 0 0 0 0 -0 -0 -0 0 0 0 0 0 -0 0 0 0 0 0 0
0 0 0 0 -0 0 0 0 0 0 0 0 0 0 0 0 0 0 0 0 0 0 0 0 0 0 0 0 -0 -0 -0 -0 0 0 0 0 0 0 0 0 -0 -0 0 0 0 0 -0 -0 0 0 0 0 0 0
0 -0 -0 -0 -0 0 0 0 0 0 0 0 0 0 0 0 0 0 0 0 0 -0 -0 -0 -0 -0 -0 -0 -0 0 0 0 0 0 0 0 0 0 0 -0 -0 0 0 -0 0 -0 0 0 0 0 0 -0 -0 -0
0 0 0 0 0 0 0 0 0 0 0 0 0 0 0 0 0 0 0 0 0 -0 -0 -0 -0 0 0 0 0 0 0 0 0 0 0 0 0 0 0 0 0 0 0 0 -0 -0 -0 -0 0 0 0 -0 -0 0
0 0 0 0 0 0 0 0 0 0 0 0 0 0 0 0 0 0 -0 -0 -0 -0 -0 -0 -0 0 0 0 0 0 0 0 0 0 0 0 0 0 0 0 0 -0 -0 -0 0 0 -0 0 0 0 -0 -0 -0 -0
0 -0 0 0 0 -0 0 0 0 0 0 0 0 0 0 0 -0 -0 -0 -0 -0 0 0 0 0 0 0 0 0 0 0 0 0 0 0 0 0 0 0 -0 -0 -0 -0 0 0 0 0 0 0 0 0 -0 -0 -0
0 0 0 0 0 0 0 0 0 0 0 0 0 0 0 0 0 0 0 0 0 0 0 0 0 0 0 0 0 0 0 0 0 0 0 0 0 0 -0 -0 -0 -0 -0 0 0 0 0 0 -0 -0 -0 -0 -0 0
0 0 0 0 0 0 0 0 0 0 0 0 0 0 0 0 0 0 0 0 0 0 0 0 0 0 0 0 0 0 0 0 0 0 0 0 0 -0 -0 0 0 0 0 0 0 -0 -0 -0 -0 -0 0 0 0 0
0 0 0 0 0 0 -0 -0 -0 0 0 0 0 0 0 0 0 0 0 0 0 0 0 0 0 0 0 0 0 0 0 0 0 0 0 -0 -0 -0 -0 0 0 0 0 0 0 -0 -0 -0 0 0 0 0 0 0
0 0 0 0 0 0 0 0 0 0 0 0 0 0 0 0 0 0 0 0 0 0 0 0 0 0 0 0 0 0 0 0 0 0 0 0 0 0 0 0 0 -0 -0 0 0 0 0 0 0 0 0 0 0 0
Wind_Speed_500mb
58 56 56 56 57 57 57 53 50 49 45 40 36 32 27 23 20 15 10 19 15 11 37 24 5 12 11 5 4 9 11 7 8 8 4 4 4 6 4 7 6 5 3 5 3 5 9 20 10 7 7 5 5 14
54 54 54 53 55 55 57 56 55 53 49 46 40 36 33 28 23 19 14 18 21 20 25 45 53 53 56 60 43 13 5 5 7 7 1 2 2 2 5 6 6 5 11 6 13 10 11 8 7 11 12 8 8 8
51 50 50 51 51 51 50 49 49 52 53 52 46 40 36 33 28 22 23 24 26 15 35 29 5 4 12 12 27 12 12 9 9 5 11 4 8 7 6 10 4 7 5 5 7 6 9 11 7 6 13 15 16 16
45 44 43 43 45 46 45 45 45 44 45 47 48 45 40 36 32 28 24 23 22 11 8 14 15 10 11 29 13 23 39 32 21 16 9 6 5 16 7 8 9 13 8 6 10 23 32 31 19 14 24 32 33 32
38 38 37 36 34 34 37 39 40 40 43 41 44 43 39 35 33 28 26 27 24 13 7 27 54 33 29 20 32 37 36 48 33 13 5 7 8 5 5 3 12 19 13 8 17 34 17 30 36 27 33 26 27 33
34 34 33 34 32 29 29 29 31 35 37 39 40 37 35 32 24 16 11 20 22 15 9 8 17 36 41 31 29 37 35 41 38 16 12 10 13 10 5 7 15 22 35 51 40 58 43 37 60 50 28 27 30 36
33 32 29 28 29 26 26 28 27 27 29 31 31 33 32 30 28 21 7 13 19 13 6 13 16 12 22 18 9 21 29 25 28 16 13 14 15 21 5 16 20 54 56 64 67 62 44 48 39 27 30 25 27 29
31 30 28 25 26 25 24 25 23 23 22 22 22 24 27 29 33 34 38 19 17 11 9 4 10 16 9 7 6 5 15 24 16 14 7 10 6 11 9 26 47 49 43 43 37 44 49 49 35 36 37 37 41 43
30 28 25 23 24 24 24 22 21 21 18 17 10 8 7 12 14 20 30 36 36 22 8 10 6 8 3 2 4 5 3 1 10 9 12 14 6 10 16 29 39 38 40 49 43 41 54 58 62 60 52 54 55 52
49 39 30 26 25 25 22 17 17 16 11 15 19 8 9 10 12 6 10 12 17 16 13 13 13 8 3 4 11 9 4 6 3 10 11 8 12 48 29 23 22 18 15 10 9 22 29 32 34 38 37 46 41 29
40 42 36 29 28 25 19 14 12 6 23 20 11 9 9 15 14 9 6 7 11 7 17 20 37 20 11 5 5 10 5 4 4 8 7 5 6 5 13 18 21 21 21 25 23 19 21 25 27 26 20 23 29 32
37 37 36 34 28 25 20 14 10 22 15 16 14 15 12 9 7 7 6 7 9 10 11 12 19 29 19 25 11 14 8 4 9 4 1 6 3 9 11 13 12 15 24 37 47 55 57 63 70 62 54 49 44 48
42 40 31 28 26 24 20 16 12 33 22 19 9 12 10 10 7 11 13 8 8 10 12 10 6 9 20 24 11 7 7 8 5 1 7 4 4 5 4 12 22 37 53 62 69 74 76 78 78 81 85 87 78 62
37 43 40 39 34 28 21 16 13 30 19 11 12 9 10 9 10 11 6 6 13 6 8 16 8 16 13 8 5 6 5 3 4 5 6 4 11 1 14 28 40 56 70 71 72 74 71 69 67 62 57 61 63 77
36 35 36 38 38 38 40 26 18 26 10 10 10 10 13 22 14 7 13 20 23 32 31 16 4 1 6 1 1 5 2 7 9 7 5 16 8 19 34 40 55 70 71 71 67 69 68 74 62 65 60 53 50 51
30 30 36 30 30 35 32 34 29 28 10 8 13 9 13 3 10 19 27 26 8 14 7 7 5 5 4 2 5 11 8 9 6 5 10 14 16 31 40 47 65 77 70 64 57 57 60 53 51 52 49 42 44 48
32 33 25 27 26 20 26 26 26 13 11 11 14 35 32 18 17 17 5 14 16 5 4 6 9 13 7 6 6 7 8 7 7 11 15 16 30 43 50 55 73 74 66 58 59 63 59 51 46 43 41 36 30 25
41 30 30 27 33 33 29 32 13 13 13 16 12 20 17 21 13 16 11 11 15 13 10 4 3 4 7 8 7 6 6 7 4 13 23 33 46 57 57 57 75 65 52 45 56 65 57 54 47 38 30 23 20 18
34 33 23 37 19 33 15 16 12 7 17 16 27 39 40 32 31 31 29 26 23 20 22 9 6 6 8 11 5 9 20 16 30 43 51 53 59 62 57 63 69 49 39 44 54 56 47 44 44 44 36 29 24 15
30 27 25 30 23 14 9 8 13 12 11 12 25 39 50 49 44 44 43 36 30 15 13 8 9 17 19 21 18 22 33 37 42 55 62 62 63 61 59 64 56 34 31 40 50 44 46 40 32 35 34 28 23 16
26 27 27 13 24 19 10 11 15 13 11 13 16 21 18 25 38 46 45 35 24 12 14 43 41 38 32 32 30 44 54 59 60 61 68 74 65 59 61 63 36 24 27 34 45 44 48 44 37 35 34 35 29 29
19 22 15 18 7 16 11 13 10 10 11 15 12 11 9 10 17 26 21 29 19 41 40 37 36 39 47 55 64 67 68 66 63 61 62 62 61 60 63 51 27 16 20 30 37 38 40 32 30 41 45 41 39 40
22 24 8 7 7 15 9 13 11 9 6 7 8 6 7 9 11 13 14 17 20 42 45 49 50 51 57 59 59 56 52 56 60 61 53 51 50 55 48 19 9 17 26 27 33 35 23 13 14 27 35 38 40 43
6 18 9 10 12 6 6 8 12 9 8 5 4 7 7 10 8 11 7 13 46 42 41 44 43 46 49 51 52 50 46 48 44 40 40 43 55 29 9 5 7 17 19 25 29 19 17 27 27 26 30 33 36 38
5 11 9 9 10 8 7 4 6 4 7 9 6 7 7 8 5 7 8 13 22 29 38 39 40 44 39 39 38 35 26 29 32 42 47 37 17 7 8 8 11 13 17 19 12 17 28 18 18 25 32 27 28 30
7 11 12 16 8 8 7 5 7 10 5 5 9 10 8 4 4 8 5 4 3 7 7 12 14 19 24 26 28 28 26 30 35 35 11 9 3 7 9 12 12 11 11 2 17 31 26 24 27 30 23 23 24 40
7 9 13 15 9 8 8 17 16 6 7 7 7 4 3 6 8 7 6 3 8 13 11 2 7 15 21 26 30 30 34 32 21 12 9 4 7 8 10 12 8 12 4 19 33 33 27 30 35 34 32 44 51 47
12 8 11 16 12 13 6 7 5 7 8 12 5 5 5 5 3 6 4 4 7 12 20 23 25 28 31 34 33 27 17 15 14 10 9 8 11 14 11 5 6 14 29 33 32 28 30 32 31 37 49 43 34 30
12 14 16 14 16 15 17 11 10 13 10 5 5 4 6 19 46 41 32 27 29 35 37 42 35 21 14 12 15 20 19 14 8 12 11 14 13 18 33 34 38 36 35 31 27 27 28 22 24 32 36 28 27 31
14 25 10 8 7 11 20 32 27 39 39 44 48 49 58 71 56 51 53 56 55 50 37 22 9 13 11 13 15 14 10 8 11 20 30 35 40 43 40 37 35 32 28 26 26 22 19 23 27 33 30 23 28 24
10 24 12 14 11 28 43 42 38 37 46 52 54 51 65 58 57 54 36 24 20 15 13 17 16 15 20 19 14 16 20 21 26 33 37 36 30 35 34 31 28 30 30 29 26 25 18 13 29 29 24 24 22 15
24 27 15 9 9 16 14 9 11 19 31 31 29 28 27 21 13 11 9 6 7 13 18 18 19 21 24 21 20 25 32 36 37 42 46 45 43 40 36 29 25 21 23 25 23 18 18 21 26 23 18 17 15 15
21 25 26 11 6 4 4 6 7 10 11 8 10 12 14 9 9 6 4 10 18 23 32 39 28 24 22 24 30 39 43 40 37 36 40 41 31 26 27 25 22 20 23 23 23 25 22 21 21 15 8 15 13 9
Wind_Direction_500mb
280 280 278 275 273 273 275 276 271 272 276 280 285 286 291 305 322 331 300 316 331 282 287 271 268 232 262 258 146 323 349 346 36 63 125 246 190 259 335 268 294 183 137 235 132 194 273 343 13 94 231 319 272 299
281 280 279 277 274 274 271 271 271 270 270 269 271 271 275 281 294 309 301 308 310 279 272 286 279 278 267 265 263 246 249 222 209 96 187 142 300 318 179 283 307 260 184 206 174 219 237 347 70 64 50 51 16 337
280 278 277 277 276 275 274 272 270 267 266 266 266 262 260 264 270 282 296 300 310 295 298 280 269 344 280 264 227 231 217 213 193 158 162 176 233 133 204 243 252 265 176 206 42 285 200 350 258 16 9 353 340 335
278 277 277 276 275 276 276 274 270 265 263 262 260 258 255 253 259 266 280 290 299 284 282 281 247 252 244 305 244 252 251 256 269 204 187 169 187 194 222 239 201 218 159 175 262 283 275 280 200 304 311 310 309 305
275 276 275 276 277 276 275 273 270 266 263 258 256 256 251 246 249 256 264 271 266 243 273 293 301 264 263 267 267 258 251 238 228 188 151 224 217 159 237 16 254 225 227 207 255 251 235 271 283 299 289 278 275 280
271 272 275 275 275 276 275 273 272 267 263 259 257 253 244 239 236 237 263 246 220 225 289 309 295 291 288 269 278 243 236 229 212 190 202 227 215 190 200 241 265 250 254 250 246 271 276 275 280 287 262 288 289 282
263 264 270 273 275 278 280 277 276 273 268 266 257 247 238 225 207 198 220 174 190 186 245 298 290 273 309 315 290 219 210 205 212 200 213 211 211 193 185 246 258 268 270 274 278 280 277 274 266 253 271 267 280 266
260 263 265 266 270 275 278 286 287 283 278 268 252 243 230 220 216 221 227 191 176 208 232 237 273 305 278 275 308 247 209 212 214 218 208 187 204 207 245 242 256 263 270 274 274 280 275 273 270 262 274 263 255 243
253 257 261 271 269 270 275 277 283 288 286 277 237 158 167 194 205 223 231 232 239 222 216 193 230 257 313 3 305 354 359 332 234 214 227 166 203 223 226 241 257 268 272 283 291 283 287 284 279 278 273 254 243 239
261 254 258 264 271 271 272 274 281 287 279 151 147 168 193 195 190 188 186 202 206 215 229 228 220 257 310 343 21 2 302 246 226 240 166 184 244 255 289 313 311 316 324 351 339 6 354 336 312 290 257 230 224 217
252 249 243 242 257 266 259 255 274 255 156 158 184 206 177 169 165 173 179 184 190 249 214 231 219 237 237 141 212 221 242 230 249 261 174 239 269 18 81 88 84 76 68 62 54 32 10 359 349 335 305 256 239 233
243 240 236 233 236 249 253 230 252 193 180 185 172 145 175 188 196 182 198 182 209 234 206 196 223 213 222 206 172 203 208 189 243 338 73 265 262 101 88 66 37 7 348 332 320 312 305 303 300 290 291 287 270 266
252 240 232 230 227 231 242 220 227 200 189 205 214 167 173 187 200 206 192 208 208 208 215 212 226 217 196 196 198 188 210 234 326 129 229 241 180 123 38 347 334 326 319 316 310 306 298 291 285 282 277 273 262 258
243 236 229 224 217 216 216 207 232 217 207 219 197 194 197 197 226 203 204 178 209 220 13 338 251 198 209 170 192 162 243 58 271 237 239 220 192 271 327 320 318 318 323 316 311 309 301 300 298 298 292 282 267 257
239 235 237 233 222 225 229 209 196 214 236 232 207 219 215 226 235 261 251 257 275 301 302 303 177 86 21 53 245 121 170 243 212 226 209 202 209 327 330 328 328 326 322 320 320 314 311 309 302 298 294 291 280 264
227 227 225 221 223 227 223 194 200 204 234 248 233 259 251 331 270 260 262 269 298 303 286 212 132 96 213 190 235 211 177 217 243 209 208 207 302 333 333 331 333 331 330 327 329 325 317 313 309 307 303 294 287 273
223 224 220 211 211 204 194 205 196 205 222 226 232 238 258 278 281 294 52 355 351 319 209 189 169 196 154 181 225 203 209 201 204 227 232 284 326 337 338 331 337 333 330 328 333 341 340 334 323 317 316 316 311 277
222 214 216 208 189 197 211 200 197 220 243 242 250 254 258 263 253 268 295 330 3 10 343 254 226 177 211 210 208 205 166 338 330 302 311 321 330 330 327 325 336 330 328 336 340 341 345 346 342 341 332 317 305 281
202 210 222 195 194 184 178 195 209 250 247 249 251 246 244 253 249 260 263 270 284 297 313 259 228 187 232 234 231 317 321 322 326 326 321 321 316 319 320 327 331 326 329 335 340 340 341 342 338 343 345 340 330 316
209 210 214 207 195 175 182 204 194 244 251 241 241 243 247 251 264 266 266 272 259 238 178 238 215 209 216 224 290 284 293 304 306 309 312 314 315 316 317 328 327 326 332 336 343 355 353 358 5 352 349 340 331 331
207 213 214 209 196 188 216 211 218 233 257 250 271 251 245 250 247 250 258 257 223 214 228 227 237 248 266 279 278 280 286 292 295 298 301 302 309 308 319 328 328 335 334 340 339 340 348 350 355 357 349 7 23 41
191 177 175 201 175 189 243 244 252 278 241 256 268 225 235 227 216 224 233 202 216 230 235 242 249 259 266 269 274 283 288 293 292 294 297 299 300 308 316 322 328 320 336 340 343 341 340 355 35 62 61 57 63 69
161 168 168 185 206 199 255 224 237 238 245 257 289 242 229 228 231 192 203 218 239 248 249 257 255 253 257 270 278 282 283 283 287 292 291 292 296 304 309 305 301 315 332 347 339 342 346 24 103 84 70 69 77 82
137 170 186 199 204 234 232 246 213 236 256 267 268 271 263 234 210 195 231 227 243 253 246 247 248 255 263 267 270 278 282 283 278 275 281 289 296 300 277 182 274 315 322 333 346 354 91 114 78 60 59 84 81 79
197 188 211 199 212 230 230 233 237 229 247 216 226 250 256 227 212 224 223 270 273 253 244 240 244 256 259 264 270 271 263 260 267 280 293 287 258 248 225 255 299 325 342 342 352 123 130 104 79 66 79 84 81 77
239 200 199 197 203 199 219 245 223 221 237 250 239 247 236 218 243 247 242 242 24 62 154 203 229 242 244 247 253 259 268 275 283 284 240 197 196 297 297 283 307 332 337 26 130 124 109 97 99 86 84 84 86 107
246 222 217 222 229 231 260 255 256 253 220 237 262 260 216 245 239 244 236 235 154 138 133 133 314 284 271 264 263 268 274 272 255 199 177 251 275 245 257 279 329 15 354 143 135 133 123 115 97 85 97 104 108 99
243 239 204 196 212 235 293 315 293 252 224 230 263 255 277 249 285 3 308 193 215 265 276 279 294 298 292 285 272 259 229 198 190 211 247 229 204 216 236 228 147 136 137 134 136 137 130 121 98 110 122 118 103 99
236 228 210 209 214 210 215 214 238 238 249 254 304 294 240 291 301 294 298 295 294 284 281 292 298 285 268 227 187 169 171 176 208 241 197 155 157 144 136 139 135 126 119 115 114 124 128 114 105 117 141 133 134 124
237 209 218 218 219 224 220 220 245 252 259 252 253 265 278 292 289 290 294 295 292 287 288 281 216 187 171 158 152 164 186 203 199 150 142 133 133 137 137 137 135 135 133 131 132 124 109 130 143 150 151 149 149 142
230 188 207 216 243 246 249 254 260 265 266 266 264 263 271 286 295 303 293 278 270 256 212 181 182 180 161 141 154 168 159 151 141 139 152 155 149 142 137 132 126 132 144 145 137 130 128 129 155 156 152 152 158 161
195 191 203 222 249 253 283 248 255 223 258 253 252 256 266 285 283 274 293 281 214 185 170 169 149 139 138 141 147 147 148 142 133 139 144 145 142 137 130 127 129 140 162 171 172 162 147 163 162 163 166 171 187 216
214 215 221 244 251 233 232 339 291 276 251 251 251 239 240 228 253 287 94 160 157 149 138 128 130 136 140 148 153 156 149 147 146 156 160 154 146 145 145 141 139 127 129 154 167 158 173 177 180 180 161 127 95 78
Wind_Speed_850mb
58 56 56 56 57 57 57 53 50 49 45 40 36 32 27 23 20 15 10 19 15 11 37 24 5 12 11 5 4 9 11 7 8 8 4 4 4 6 4 7 6 5 3 5 3 5 9 20 10 7 7 5 5 14
54 54 54 53 55 55 57 56 55 53 49 46 40 36 33 28 23 19 14 18 21 20 25 45 53 53 56 60 43 13 5 5 7 7 1 2 2 2 5 6 6 5 11 6 13 10 11 8 7 11 12 8 8 8
51 50 50 51 51 51 50 49 49 52 53 52 46 40 36 33 28 22 23 24 26 15 35 29 5 4 12 12 27 12 12 9 9 5 11 4 8 7 6 10 4 7 5 5 7 6 9 11 7 6 13 15 16 16
45 44 43 43 45 46 45 45 45 44 45 47 48 45 40 36 32 28 24 23 22 11 8 14 15 10 11 29 13 23 39 32 21 16 9 6 5 16 7 8 9 13 8 6 10 23 32 31 19 14 24 32 33 32
38 38 37 36 34 34 37 39 40 40 43 41 44 43 39 35 33 28 26 27 24 13 7 27 54 33 29 20 32 37 36 48 33 13 5 7 8 5 5 3 12 19 13 8 17 34 17 30 36 27 33 26 27 33
34 34 33 34 32 29 29 29 31 35 37 39 40 37 35 32 24 16 11 20 22 15 9 8 17 36 41 31 29 37 35 41 38 16 12 10 13 10 5 7 15 22 35 51 40 58 43 37 60 50 28 27 30 36
33 32 29 28 29 26 26 28 27 27 29 31 31 33 32 30 28 21 7 13 19 13 6 13 16 12 22 18 9 21 29 25 28 16 13 14 15 21 5 16 20 54 56 64 67 62 44 48 39 27 30 25 27 29
31 30 28 25 26 25 24 25 23 23 22 22 22 24 27 29 33 34 38 19 17 11 9 4 10 16 9 7 6 5 15 24 16 14 7 10 6 11 9 26 47 49 43 43 37 44 49 49 35 36 37 37 41 43
30 28 25 23 24 24 24 22 21 21 18 17 10 8 7 12 14 20 30 36 36 22 8 10 6 8 3 2 4 5 3 1 10 9 12 14 6 10 16 29 39 38 40 49 43 41 54 58 62 60 52 54 55 52
49 39 30 26 25 25 22 17 17 16 11 15 19 8 9 10 12 6 10 12 17 16 13 13 13 8 3 4 11 9 4 6 3 10 11 8 12 48 29 23 22 18 15 10 9 22 29 32 34 38 37 46 41 29
40 42 36 29 28 25 19 14 12 6 23 20 11 9 9 15 14 9 6 7 11 7 17 20 37 20 11 5 5 10 5 4 4 8 7 5 6 5 13 18 21 21 21 25 23 19 21 25 27 26 20 23 29 32
37 37 36 34 28 25 20 14 10 22 15 16 14 15 12 9 7 7 6 7 9 10 11 12 19 29 19 25 11 14 8 4 9 4 1 6 3 9 11 13 12 15 24 37 47 55 57 63 70 62 54 49 44 48
42 40 31 28 26 24 20 16 12 33 22 19 9 12 10 10 7 11 13 8 8 10 12 10 6 9 20 24 11 7 7 8 5 1 7 4 4 5 4 12 22 37 53 62 69 74 76 78 78 81 85 87 78 62
37 43 40 39 34 28 21 16 13 30 19 11 12 9 10 9 10 11 6 6 13 6 8 16 8 16 13 8 5 6 5 3 4 5 6 4 11 1 14 28 40 56 70 71 72 74 71 69 67 62 57 61 63 77
36 35 36 38 38 38 40 26 18 26 10 10 10 10 13 22 14 7 13 20 23 32 31 16 4 1 6 1 1 5 2 7 9 7 5 16 8 19 34 40 55 70 71 71 67 69 68 74 62 65 60 53 50 51
30 30 36 30 30 35 32 34 29 28 10 8 13 9 13 3 10 19 27 26 8 14 7 7 5 5 4 2 5 11 8 9 6 5 10 14 16 31 40 47 65 77 70 64 57 57 60 53 51 52 49 42 44 48
32 33 25 27 26 20 26 26 26 13 11 11 14 35 32 18 17 17 5 14 16 5 4 6 9 13 7 6 6 7 8 7 7 11 15 16 30 43 50 55 73 74 66 58 59 63 59 51 46 43 41 36 30 25
41 30 30 27 33 33 29 32 13 13 13 16 12 20 17 21 13 16 11 11 15 13 10 4 3 4 7 8 7 6 6 7 4 13 23 33 46 57 57 57 75 65 52 45 56 65 57 54 47 38 30 23 20 18
34 33 23 37 19 33 15 16 12 7 17 16 27 39 40 32 31 31 29 26 23 20 22 9 6 6 8 11 5 9 20 16 30 43 51 53 59 62 57 63 69 49 39 44 54 56 47 44 44 44 36 29 24 15
30 27 25 30 23 14 9 8 13 12 11 12 25 39 50 49 44 44 43 36 30 15 13 8 9 17 19 21 18 22 33 37 42 55 62 62 63 61 59 64 56 34 31 40 50 44 46 40 32 35 34 28 23 16
26 27 27 13 24 19 10 11 15 13 11 13 16 21 18 25 38 46 45 35 24 12 14 43 41 38 32 32 30 44 54 59 60 61 68 74 65 59 61 63 36 24 27 34 45 44 48 44 37 35 34 35 29 29
19 22 15 18 7 16 11 13 10 10 11 15 12 11 9 10 17 26 21 29 19 41 40 37 36 39 47 55 64 67 68 66 63 61 62 62 61 60 63 51 27 16 20 30 37 38 40 32 30 41 45 41 39 40
22 24 8 7 7 15 9 13 11 9 6 7 8 6 7 9 11 13 14 17 20 42 45 49 50 51 57 59 59 56 52 56 60 61 53 51 50 55 48 19 9 17 26 27 33 35 23 13 14 27 35 38 40 43
6 18 9 10 12 6 6 8 12 9 8 5 4 7 7 10 8 11 7 13 46 42 41 44 43 46 49 51 52 50 46 48 44 40 40 43 55 29 9 5 7 17 19 25 29 19 17 27 27 26 30 33 36 38
5 11 9 9 10 8 7 4 6 4 7 9 6 7 7 8 5 7 8 13 22 29 38 39 40 44 39 39 38 35 26 29 32 42 47 37 17 7 8 8 11 13 17 19 12 17 28 18 18 25 32 27 28 30
7 11 12 16 8 8 7 5 7 10 5 5 9 10 8 4 4 8 5 4 3 7 7 12 14 19 24 26 28 28 26 30 35 35 11 9 3 7 9 12 12 11 11 2 17 31 26 24 27 30 23 23 24 40
7 9 13 15 9 8 8 17 16 6 7 7 7 4 3 6 8 7 6 3 8 13 11 2 7 15 21 26 30 30 34 32 21 12 9 4 7 8 10 12 8 12 4 19 33 33 27 30 35 34 32 44 51 47
12 8 11 16 12 13 6 7 5 7 8 12 5 5 5 5 3 6 4 4 7 12 20 23 25 28 31 34 33 27 17 15 14 10 9 8 11 14 11 5 6 14 29 33 32 28 30 32 31 37 49 43 34 30
12 14 16 14 16 15 17 11 10 13 10 5 5 4 6 19 46 41 32 27 29 35 37 42 35 21 14 12 15 20 19 14 8 12 11 14 13 18 33 34 38 36 35 31 27 27 28 22 24 32 36 28 27 31
14 25 10 8 7 11 20 32 27 39 39 44 48 49 58 71 56 51 53 56 55 50 37 22 9 13 11 13 15 14 10 8 11 20 30 35 40 43 40 37 35 32 28 26 26 22 19 23 27 33 30 23 28 24
10 24 12 14 11 28 43 42 38 37 46 52 54 51 65 58 57 54 36 24 20 15 13 17 16 15 20 19 14 16 20 21 26 33 37 36 30 35 34 31 28 30 30 29 26 25 18 13 29 29 24 24 22 15
24 27 15 9 9 16 14 9 11 19 31 31 29 28 27 21 13 11 9 6 7 13 18 18 19 21 24 21 20 25 32 36 37 42 46 45 43 40 36 29 25 21 23 25 23 18 18 21 26 23 18 17 15 15
21 25 26 11 6 4 4 6 7 10 11 8 10 12 14 9 9 6 4 10 18 23 32 39 28 24 22 24 30 39 43 40 37 36 40 41 31 26 27 25 22 20 23 23 23 25 22 21 21 15 8 15 13 9
Wind_Direction_850mb
280 280 278 275 273 273 275 276 271 272 276 280 285 286 291 305 322 331 300 316 331 282 287 271 268 232 262 258 146 323 349 346 36 63 125 246 190 259 335 268 294 183 137 235 132 194 273 343 13 94 231 319 272 299
281 280 279 277 274 274 271 271 271 270 270 269 271 271 275 281 294 309 301 308 310 279 272 286 279 278 267 265 263 246 249 222 209 96 187 142 300 318 179 283 307 260 184 206 174 219 237 347 70 64 50 51 16 337
280 278 277 277 276 275 274 272 270 267 266 266 266 262 260 264 270 282 296 300 310 295 298 280 269 344 280 264 227 231 217 213 193 158 162 176 233 133 204 243 252 265 176 206 42 285 200 350 258 16 9 353 340 335
278 277 277 276 275 276 276 274 270 265 263 262 260 258 255 253 259 266 280 290 299 284 282 281 247 252 244 305 244 252 251 256 269 204 187 169 187 194 222 239 201 218 159 175 262 283 275 280 200 304 311 310 309 305
275 276 275 276 277 276 275 273 270 266 263 258 256 256 251 246 249 256 264 271 266 243 273 293 301 264 263 267 267 258 251 238 228 188 151 224 217 159 237 16 254 225 227 207 255 251 235 271 283 299 289 278 275 280
271 272 275 275 275 276 275 273 272 267 263 259 257 253 244 239 236 237 263 246 220 225 289 309 295 291 288 269 278 243 236 229 212 190 202 227 215 190 200 241 265 250 254 250 246 271 276 275 280 287 262 288 289 282
263 264 270 273 275 278 280 277 276 273 268 266 257 247 238 225 207 198 220 174 190 186 245 298 290 273 309 315 290 219 210 205 212 200 213 211 211 193 185 246 258 268 270 274 278 280 277 274 266 253 271 267 280 266
260 263 265 266 270 275 278 286 287 283 278 268 252 243 230 220 216 221 227 191 176 208 232 237 273 305 278 275 308 247 209 212 214 218 208 187 204 207 245 242 256 263 270 274 274 280 275 273 270 262 274 263 255 243
253 257 261 271 269 270 275 277 283 288 286 277 237 158 167 194 205 223 231 232 239 222 216 193 230 257 313 3 305 354 359 332 234 214 227 166 203 223 226 241 257 268 272 283 291 283 287 284 279 278 273 254 243 239
261 254 258 264 271 271 272 274 281 287 279 151 147 168 193 195 190 188 186 202 206 215 229 228 220 257 310 343 21 2 302 246 226 240 166 184 244 255 289 313 311 316 324 351 339 6 354 336 312 290 257 230 224 217
252 249 243 242 257 266 259 255 274 255 156 158 184 206 177 169 165 173 179 184 190 249 214 231 219 237 237 141 212 221 242 230 249 261 174 239 269 18 81 88 84 76 68 62 54 32 10 359 349 335 305 256 239 233
243 240 236 233 236 249 253 230 252 193 180 185 172 145 175 188 196 182 198 182 209 234 206 196 223 213 222 206 172 203 208 189 243 338 73 265 262 101 88 66 37 7 348 332 320 312 305 303 300 290 291 287 270 266
252 240 232 230 227 231 242 220 227 200 189 205 214 167 173 187 200 206 192 208 208 208 215 212 226 217 196 196 198 188 210 234 326 129 229 241 180 123 38 347 334 326 319 316 310 306 298 291 285 282 277 273 262 258
243 236 229 224 217 216 216 207 232 217 207 219 197 194 197 197 226 203 204 178 209 220 13 338 251 198 209 170 192 162 243 58 271 237 239 220 192 271 327 320 318 318 323 316 311 309 301 300 298 298 292 282 267 257
239 235 237 233 222 225 229 209 196 214 236 232 207 219 215 226 235 261 251 257 275 301 302 303 177 86 21 53 245 121 170 243 212 226 209 202 209 327 330 328 328 326 322 320 320 314 311 309 302 298 294 291 280 264
227 227 225 221 223 227 223 194 200 204 234 248 233 259 251 331 270 260 262 269 298 303 286 212 132 96 213 190 235 211 177 217 243 209 208 207 302 333 333 331 333 331 330 327 329 325 317 313 309 307 303 294 287 273
223 224 220 211 211 204 194 205 196 205 222 226 232 238 258 278 281 294 52 355 351 319 209 189 169 196 154 181 225 203 209 201 204 227 232 284 326 337 338 331 337 333 330 328 333 341 340 334 323 317 316 316 311 277
222 214 216 208 189 197 211 200 197 220 243 242 250 254 258 263 253 268 295 330 3 10 343 254 226 177 211 210 208 205 166 338 330 302 311 321 330 330 327 325 336 330 328 336 340 341 345 346 342 341 332 317 305 281
202 210 222 195 194 184 178 195 209 250 247 249 251 246 244 253 249 260 263 270 284 297 313 259 228 187 232 234 231 317 321 322 326 326 321 321 316 319 320 327 331 326 329 335 340 340 341 342 338 343 345 340 330 316
209 210 214 207 195 175 182 204 194 244 251 241 241 243 247 251 264 266 266 272 259 238 178 238 215 209 216 224 290 284 293 304 306 309 312 314 315 316 317 328 327 326 332 336 343 355 353 358 5 352 349 340 331 331
207 213 214 209 196 188 216 211 218 233 257 250 271 251 245 250 247 250 258 257 223 214 228 227 237 248 266 279 278 280 286 292 295 298 301 302 309 308 319 328 328 335 334 340 339 340 348 350 355 357 349 7 23 41
191 177 175 201 175 189 243 244 252 278 241 256 268 225 235 227 216 224 233 202 216 230 235 242 249 259 266 269 274 283 288 293 292 294 297 299 300 308 316 322 328 320 336 340 343 341 340 355 35 62 61 57 63 69
161 168 168 185 206 199 255 224 237 238 245 257 289 242 229 228 231 192 203 218 239 248 249 257 255 253 257 270 278 282 283 283 287 292 291 292 296 304 309 305 301 315 332 347 339 342 346 24 103 84 70 69 77 82
137 170 186 199 204 234 232 246 213 236 256 267 268 271 263 234 210 195 231 227 243 253 246 247 248 255 263 267 270 278 282 283 278 275 281 289 296 300 277 182 274 315 322 333 346 354 91 114 78 60 59 84 81 79
197 188 211 199 212 230 230 233 237 229 247 216 226 250 256 227 212 224 223 270 273 253 244 240 244 256 259 264 270 271 263 260 267 280 293 287 258 248 225 255 299 325 342 342 352 123 130 104 79 66 79 84 81 77
239 200 199 197 203 199 219 245 223 221 237 250 239 247 236 218 243 247 242 242 24 62 154 203 229 242 244 247 253 259 268 275 283 284 240 197 196 297 297 283 307 332 337 26 130 124 109 97 99 86 84 84 86 107
246 222 217 222 229 231 260 255 256 253 220 237 262 260 216 245 239 244 236 235 154 138 133 133 314 284 271 264 263 268 274 272 255 199 177 251 275 245 257 279 329 15 354 143 135 133 123 115 97 85 97 104 108 99
243 239 204 196 212 235 293 315 293 252 224 230 263 255 277 249 285 3 308 193 215 265 276 279 294 298 292 285 272 259 229 198 190 211 247 229 204 216 236 228 147 136 137 134 136 137 130 121 98 110 122 118 103 99
236 228 210 209 214 210 215 214 238 238 249 254 304 294 240 291 301 294 298 295 294 284 281 292 298 285 268 227 187 169 171 176 208 241 197 155 157 144 136 139 135 126 119 115 114 124 128 114 105 117 141 133 134 124
237 209 218 218 219 224 220 220 245 252 259 252 253 265 278 292 289 290 294 295 292 287 288 281 216 187 171 158 152 164 186 203 199 150 142 133 133 137 137 137 135 135 133 131 132 124 109 130 143 150 151 149 149 142
230 188 207 216 243 246 249 254 260 265 266 266 264 263 271 286 295 303 293 278 270 256 212 181 182 180 161 141 154 168 159 151 141 139 152 155 149 142 137 132 126 132 144 145 137 130 128 129 155 156 152 152 158 161
195 191 203 222 249 253 283 248 255 223 258 253 252 256 266 285 283 274 293 281 214 185 170 169 149 139 138 141 147 147 148 142 133 139 144 145 142 137 130 127 129 140 162 171 172 162 147 163 162 163 166 171 187 216
214 215 221 244 251 233 232 339 291 276 251 251 251 239 240 228 253 287 94 160 157 149 138 128 130 136 140 148 153 156 149 147 146 156 160 154 146 145 145 141 139 127 129 154 167 158 173 177 180 180 161 127 95 78